TimePST,TemperatureF,Dew PointF,Humidity,Sea Level PressureIn,VisibilityMPH,Wind Direction,Wind SpeedMPH,Gust SpeedMPH,PrecipitationIn,Events,Conditions,WindDirDegrees,DateUTC
12:56 AM,44.1,28.9,55,30.04,10.0,ESE,4.6,-,N/A,,Clear,110,2012-12-04 08:56:00
1:56 AM,46.0,28.9,51,30.05,10.0,SE,8.1,-,N/A,,Clear,140,2012-12-04 09:56:00
2:56 AM,48.9,30.0,48,30.06,10.0,South,9.2,-,N/A,,Clear,170,2012-12-04 10:56:00
3:56 AM,48.0,30.0,50,30.06,10.0,SSE,5.8,-,N/A,,Mostly Cloudy,150,2012-12-04 11:56:00
4:56 AM,46.0,30.0,54,30.06,10.0,South,4.6,-,N/A,,Partly Cloudy,190,2012-12-04 12:56:00
5:56 AM,42.1,30.9,65,30.08,10.0,NE,4.6,-,N/A,,Clear,40,2012-12-04 13:56:00
6:16 AM,41.0,30.2,65,30.18,10.0,NNE,3.5,-,N/A,,Overcast,30,2012-12-04 14:16:00
6:56 AM,42.1,30.9,65,30.09,10.0,NNE,3.5,-,N/A,,Overcast,30,2012-12-04 14:56:00
7:56 AM,43.0,30.9,62,30.09,10.0,Calm,Calm,-,N/A,,Overcast,0,2012-12-04 15:56:00
8:56 AM,46.9,33.1,59,30.10,10.0,Calm,Calm,-,N/A,,Mostly Cloudy,0,2012-12-04 16:56:00
9:21 AM,55.4,35.6,47,30.21,10.0,South,9.2,-,N/A,,Overcast,170,2012-12-04 17:21:00
9:56 AM,55.9,36.0,47,30.10,10.0,SSE,9.2,-,N/A,,Overcast,160,2012-12-04 17:56:00
10:56 AM,55.9,36.0,47,30.09,10.0,South,11.5,-,N/A,,Overcast,170,2012-12-04 18:56:00
11:56 AM,57.9,36.0,44,30.07,10.0,South,10.4,-,N/A,,Overcast,190,2012-12-04 19:56:00
12:56 PM,60.1,36.0,41,30.04,10.0,South,9.2,-,N/A,,Overcast,180,2012-12-04 20:56:00
1:56 PM,63.0,36.0,37,30.04,10.0,South,5.8,-,N/A,,Overcast,190,2012-12-04 21:56:00
2:56 PM,63.0,36.0,37,30.02,10.0,SSW,5.8,-,N/A,,Overcast,200,2012-12-04 22:56:00
3:56 PM,57.9,37.9,47,30.03,10.0,NNE,6.9,-,N/A,,Overcast,30,2012-12-04 23:56:00
4:56 PM,52.0,36.0,54,30.04,10.0,NNE,5.8,-,N/A,,Overcast,30,2012-12-05 00:56:00
5:56 PM,51.1,36.0,56,30.04,10.0,ENE,4.6,-,N/A,,Overcast,60,2012-12-05 01:56:00
6:56 PM,50.0,35.1,57,30.06,10.0,Calm,Calm,-,N/A,,Overcast,0,2012-12-05 02:56:00
7:56 PM,48.9,36.0,61,30.06,10.0,Calm,Calm,-,N/A,,Overcast,0,2012-12-05 03:56:00
8:56 PM,46.9,36.0,66,30.06,10.0,Calm,Calm,-,N/A,,Mostly Cloudy,0,2012-12-05 04:56:00
9:56 PM,45.0,34.0,65,30.05,10.0,Calm,Calm,-,N/A,,Overcast,0,2012-12-05 05:56:00
10:56 PM,44.1,34.0,68,30.04,10.0,Calm,Calm,-,N/A,,Scattered Clouds,0,2012-12-05 06:56:00
11:56 PM,41.0,33.1,73,30.03,10.0,Calm,Calm,-,N/A,,Scattered Clouds,0,2012-12-05 07:56:00